When you browse on this site, cookies collect data to enhance your experience and personalize the content and advertising you see.
Visit our Privacy Policy to learn more. By continuing to use the site, you agree to this use of cookies and data.
  • In Austria
  • List of Countries
  • For 7 days
  • Water Temperature
  • Satellite Maps
  • Weather Map
  • News
  • Weather Widgets
  • user-avatar
    Login

    Hourly Weather Chyzhky

    Today, 19 December, Wednesday

    Time Temperature Precipitation Wind Pressure Humidity
    00:00 -6°C° 0 mm 1 mps 744 mmHg 94%
    01:00 -6°C° 0 mm 1 mps 745 mmHg 94%
    02:00 -7°C° 0 mm 1 mps 745 mmHg 95%
    03:00 -7°C° 0 mm 1 mps 744 mmHg 94%
    04:00 -7°C° 0 mm 1 mps 744 mmHg 94%
    05:00 -8°C° 0 mm 2 mps 744 mmHg 94%
    06:00 -8°C° 0 mm 2 mps 744 mmHg 94%
    07:00 -8°C° 0 mm 2 mps 744 mmHg 93%
    08:00 -9°C° 0 mm 2 mps 744 mmHg 93%
    09:00 -8°C° 0 mm 2 mps 744 mmHg 90%
    10:00 -7°C° 0 mm 2 mps 744 mmHg 87%
    11:00 -6°C° 0 mm 2 mps 744 mmHg 85%
    12:00 -5°C° 0 mm 2 mps 744 mmHg 84%
    13:00 -5°C° 0 mm 3 mps 744 mmHg 83%
    14:00 -5°C° 0 mm 3 mps 743 mmHg 82%
    15:00 -5°C° 0 mm 3 mps 743 mmHg 85%
    16:00 -6°C° 0 mm 3 mps 743 mmHg 88%
    17:00 -7°C° 0 mm 3 mps 743 mmHg 91%
    18:00 -7°C° 0 mm 3 mps 742 mmHg 91%
    19:00 -7°C° 0 mm 3 mps 742 mmHg 90%
    20:00 -8°C° 0 mm 3 mps 742 mmHg 90%
    21:00 -8°C° 0 mm 3 mps 742 mmHg 89%
    22:00 -8°C° 0 mm 3 mps 742 mmHg 88%
    23:00 -8°C° 0 mm 3 mps 742 mmHg 87%

    Tomorrow, 20 December, Thursday

    Time Temperature Precipitation Wind Pressure Humidity
    00:00 -8°C° 0 mm 3 mps 741 mmHg 86%
    01:00 -8°C° 0 mm 3 mps 741 mmHg 85%
    02:00 -8°C° 0 mm 3 mps 741 mmHg 84%
    03:00 -7°C° 0 mm 3 mps 741 mmHg 84%
    04:00 -7°C° 0 mm 3 mps 741 mmHg 84%
    05:00 -7°C° 0 mm 3 mps 740 mmHg 83%
    06:00 -7°C° 0 mm 3 mps 740 mmHg 83%
    07:00 -7°C° 0 mm 3 mps 740 mmHg 84%
    08:00 -7°C° 0 mm 3 mps 740 mmHg 84%
    09:00 -6°C° 0 mm 3 mps 740 mmHg 82%
    10:00 -5°C° 0 mm 3 mps 740 mmHg 81%
    11:00 -4°C° 0 mm 3 mps 740 mmHg 79%
    12:00 -2°C° 0 mm 3 mps 740 mmHg 79%
    13:00 -2°C° 0 mm 3 mps 740 mmHg 79%
    14:00 -1°C° 0 mm 3 mps 739 mmHg 79%
    15:00 -2°C° 0 mm 3 mps 739 mmHg 81%
    16:00 -2°C° 0 mm 3 mps 739 mmHg 83%
    17:00 -4°C° 0 mm 3 mps 739 mmHg 85%
    18:00 -4°C° 0.2 mm 3 mps 739 mmHg 87%
    19:00 -2°C° 0.2 mm 3 mps 739 mmHg 88%
    20:00 -2°C° 0.2 mm 3 mps 739 mmHg 90%
    21:00 -2°C° 0.3 mm 3 mps 739 mmHg 90%
    22:00 -2°C° 0.3 mm 3 mps 739 mmHg 90%
    23:00 -2°C° 0.3 mm 3 mps 740 mmHg 90%

    Day after tomorrow, 21 December, Friday

    Time Temperature Precipitation Wind Pressure Humidity
    00:00 -2°C° 0.1 mm 3 mps 740 mmHg 90%
    01:00 -2°C° 0.1 mm 3 mps 740 mmHg 89%
    02:00 -2°C° 0.1 mm 4 mps 740 mmHg 88%
    03:00 -2°C° 0.1 mm 4 mps 740 mmHg 88%
    04:00 -2°C° 0.1 mm 4 mps 739 mmHg 87%
    05:00 -2°C° 0.1 mm 4 mps 739 mmHg 87%
    06:00 -2°C° 0 mm 4 mps 739 mmHg 87%
    07:00 -2°C° 0 mm 4 mps 739 mmHg 87%
    08:00 -2°C° 0 mm 4 mps 739 mmHg 86%
    09:00 -2°C° 0 mm 4 mps 739 mmHg 85%
    10:00 -1°C° 0 mm 5 mps 739 mmHg 84%
    11:00 -1°C° 0 mm 5 mps 739 mmHg 83%
    12:00 0°C° 0 mm 5 mps 739 mmHg 84%
    13:00 0°C° 0 mm 5 mps 738 mmHg 84%
    14:00 0°C° 0 mm 5 mps 738 mmHg 84%
    15:00 0°C° 0.3 mm 5 mps 737 mmHg 84%
    16:00 0°C° 0.3 mm 5 mps 737 mmHg 84%
    17:00 -1°C° 0.3 mm 6 mps 737 mmHg 84%
    18:00 -1°C° 0.2 mm 6 mps 736 mmHg 84%
    19:00 -1°C° 0.2 mm 6 mps 736 mmHg 83%
    20:00 -1°C° 0.2 mm 6 mps 735 mmHg 82%
    21:00 -1°C° 0.4 mm 6 mps 734 mmHg 83%
    22:00 -1°C° 0.4 mm 7 mps 733 mmHg 83%
    23:00 -1°C° 0.4 mm 7 mps 733 mmHg 83%

    22 December, Saturday

    Time Temperature Precipitation Wind Pressure Humidity
    00:00 -1°C° 0.5 mm 7 mps 732 mmHg 84%
    01:00 -1°C° 0.5 mm 8 mps 731 mmHg 84%
    02:00 -1°C° 0.5 mm 8 mps 730 mmHg 85%
    03:00 -1°C° 0.7 mm 8 mps 730 mmHg 85%
    04:00 0°C° 0.7 mm 8 mps 730 mmHg 85%
    05:00 0°C° 0.7 mm 7 mps 729 mmHg 85%
    06:00 0°C° 0.1 mm 7 mps 729 mmHg 85%
    07:00 0°C° 0.1 mm 7 mps 730 mmHg 86%
    08:00 0°C° 0.1 mm 7 mps 730 mmHg 87%
    09:00 +2°C° 0.1 mm 7 mps 730 mmHg 87%
    10:00 +2°C° 0.1 mm 7 mps 730 mmHg 87%
    11:00 +2°C° 0.1 mm 7 mps 730 mmHg 87%
    12:00 +2°C° 0.1 mm 7 mps 729 mmHg 87%
    13:00 +3°C° 0.1 mm 6 mps 729 mmHg 87%
    14:00 +3°C° 0.1 mm 6 mps 729 mmHg 87%
    15:00 +2°C° 0.2 mm 6 mps 729 mmHg 88%
    16:00 +2°C° 0.2 mm 6 mps 728 mmHg 88%
    17:00 +2°C° 0.2 mm 6 mps 728 mmHg 88%
    18:00 +2°C° 0.1 mm 6 mps 728 mmHg 88%
    19:00 +2°C° 0.1 mm 6 mps 728 mmHg 88%
    20:00 +3°C° 0.1 mm 6 mps 728 mmHg 88%
    21:00 +3°C° 0.4 mm 6 mps 728 mmHg 87%
    22:00 +3°C° 0.4 mm 6 mps 728 mmHg 87%
    23:00 +2°C° 0.4 mm 6 mps 728 mmHg 86%

    23 December, Sunday

    Time Temperature Precipitation Wind Pressure Humidity
    00:00 +2°C° 0.3 mm 6 mps 728 mmHg 87%
    01:00 +2°C° 0.3 mm 6 mps 729 mmHg 88%
    02:00 +2°C° 0.3 mm 6 mps 729 mmHg 89%
    03:00 +2°C° 0.1 mm 7 mps 729 mmHg 87%
    04:00 +2°C° 0.1 mm 7 mps 729 mmHg 86%
    05:00 +1°C° 0.1 mm 8 mps 729 mmHg 84%
    06:00 0°C° 0.2 mm 8 mps 730 mmHg 84%
    07:00 0°C° 0.2 mm 8 mps 731 mmHg 84%
    08:00 -1°C° 0.2 mm 8 mps 731 mmHg 85%
    09:00 -1°C° 0.1 mm 7 mps 732 mmHg 85%
    10:00 -1°C° 0.1 mm 7 mps 733 mmHg 85%
    11:00 -1°C° 0.1 mm 6 mps 734 mmHg 86%
    12:00 -1°C° 0.1 mm 6 mps 735 mmHg 86%
    13:00 0°C° 0.1 mm 5 mps 735 mmHg 86%
    14:00 0°C° 0.1 mm 5 mps 735 mmHg 86%
    15:00 0°C° 0.1 mm 4 mps 736 mmHg 88%
    16:00 0°C° 0.1 mm 3 mps 736 mmHg 89%
    17:00 +1°C° 0.1 mm 2 mps 736 mmHg 91%
    18:00 +1°C° 0.1 mm 2 mps 736 mmHg 92%
    19:00 +1°C° 0.1 mm 2 mps 737 mmHg 92%
    20:00 -1°C° 0.1 mm 2 mps 737 mmHg 93%
    21:00 -1°C° 0.2 mm 2 mps 737 mmHg 93%
    22:00 +1°C° 0.2 mm 1 mps 737 mmHg 93%
    23:00 +1°C° 0.2 mm 1 mps 737 mmHg 93%

    24 December, Monday

    Time Temperature Precipitation Wind Pressure Humidity
    00:00 +1°C° 0.2 mm 2 mps 737 mmHg 93%
    01:00 +1°C° 0.2 mm 2 mps 737 mmHg 93%
    02:00 0°C° 0.2 mm 3 mps 737 mmHg 92%
    03:00 0°C° 0.1 mm 3 mps 737 mmHg 92%
    04:00 0°C° 0.1 mm 3 mps 736 mmHg 91%
    05:00 0°C° 0.1 mm 3 mps 736 mmHg 91%
    06:00 0°C° 0.2 mm 3 mps 736 mmHg 90%
    07:00 -1°C° 0.2 mm 4 mps 736 mmHg 90%
    08:00 -1°C° 0.2 mm 4 mps 736 mmHg 90%
    09:00 -1°C° 0.4 mm 4 mps 736 mmHg 90%
    10:00 0°C° 0.4 mm 4 mps 736 mmHg 89%
    11:00 0°C° 0.4 mm 5 mps 736 mmHg 89%
    12:00 0°C° 0.2 mm 5 mps 736 mmHg 89%
    13:00 0°C° 0.2 mm 5 mps 736 mmHg 89%
    14:00 0°C° 0.2 mm 5 mps 736 mmHg 88%
    15:00 0°C° 0.3 mm 5 mps 736 mmHg 89%
    16:00 0°C° 0.3 mm 4 mps 736 mmHg 90%
    17:00 0°C° 0.3 mm 4 mps 737 mmHg 90%
    18:00 0°C° 0.3 mm 4 mps 737 mmHg 91%
    19:00 0°C° 0.3 mm 4 mps 738 mmHg 92%
    20:00 -1°C° 0.3 mm 5 mps 739 mmHg 93%
    21:00 -1°C° 0.2 mm 4 mps 739 mmHg 93%
    22:00 -2°C° 0.2 mm 4 mps 740 mmHg 92%
    23:00 -2°C° 0.2 mm 4 mps 741 mmHg 91%
    Show more